Regional Weather Roundup
Issued by NWS Charleston, SC

Current Version | Previous Version | Text Only | Print | Product List | Glossary Off
Versions: 1 2 3 4 5 6 7 8 9 10 11 12 13 14 15 16 17 18 19 20 21 22 23 24 25 26 27 28 29 30 31 32 33 34 35 36 37 38 39 40 41 42 43 44 45 46 47 48 49 50

868
ASUS42 KCHS 271111
RWRCHS

REGIONAL WEATHER ROUNDUP
NATIONAL WEATHER SERVICE CHARLESTON SC
600 AM EST MON FEB 27 2017

NOTE: "FAIR" INDICATES FEW OR NO CLOUDS BELOW 12,000 FEET WITH NO
SIGNIFICANT WEATHER AND/OR OBSTRUCTIONS TO VISIBILITY.

NOT ALL STATIONS ARE QUALITY CONTROLLED. USE DATA WITH CAUTION...
ESPECIALLY DEWPOINT OBSERVATIONS.

SCZ027-030-031-034>040-042>050-271200-
...SOUTHEAST SOUTH CAROLINA...

CITY           SKY/WX    TMP DP  RH WIND       PRES   REMARKS
N CHARLESTON   PTCLDY    42  39  89 NE3       30.32S
WATERFRONT PRK   N/A     60  46  59 E14       30.32R
MOUNT PLEASANT LGT RAIN  41  39  93 CALM      30.33S
JOHNS ISLAND   FAIR      48  43  81 E5        30.32S
PINOPOLIS        N/A     48  43  81 CALM      30.25R
MONCKS CORNER  FAIR      37  34  87 CALM      30.32S
SUMMERVILLE    FAIR      36  36 100 E3        30.33S
BEAUFORT MCAS  CLEAR     53  46  77 SE8       30.29F
BEAUFORT ARPT  FAIR      52  43  71 E6        30.30S
HILTON HEAD IS NOT AVBL
WALTERBORO     SUNNY     39  37  93 E5        30.31F WCI  36
ALLENDALE      FAIR      41  39  93 CALM      30.28S

...SOUTHERN MIDLANDS AND PEE DEE...

CITY           SKY/WX    TMP DP  RH WIND       PRES   REMARKS
GEORGETOWN     FAIR      37  36  93 CALM      30.35S
KINGSTREE      FAIR      32  32 100 CALM      30.33F
ORANGEBURG     PTCLDY    39  36  89 NE3       30.31R
BARNWELL       FAIR      37  36  93 CALM      30.29S
AIKEN          FAIR      34  32  93 E3        30.31S
MANNING        FAIR      36  34  93 MISG      30.32S
COLUMBIA       CLEAR     34  30  85 CALM      30.31R
SUMTER         PTCLDY    34  30  85 NE6       30.30R WCI  29
FLORENCE       PTCLDY    36  34  92 CALM      30.35R
MYRTLE BEACH   NOT AVBL
N MYRTLE BEACH CLEAR     42  40  92 E3        30.35S

$$

GAZ063-065-086>088-099>101-113>116-118-119-134>141-150-271200-
...SOUTHEAST GEORGIA...

CITY           SKY/WX    TMP DP  RH WIND       PRES   REMARKS
SAVANNAH ARPT  CLEAR     49  44  83 E5        30.28S
HUNTER AAF     CLEAR     47  46  96 CALM      30.25S
FORT STEWART   PTCLDY    42  40  91 CALM      30.25S
STATESBORO     CLEAR     40  32  74 CALM      30.28R
SYLVANIA       SUNNY    N/A N/A N/A CALM      30.29R
CLAXTON        FAIR     N/A N/A N/A CALM      30.28R

...CSRA...CENTRAL AND FAR SOUTHEAST GEORGIA...

CITY           SKY/WX    TMP DP  RH WIND       PRES   REMARKS
THOMSON        CLEAR     36  34  95 CALM      30.33R
AUGUSTA-BUSH   CLEAR     36  33  89 W3        30.28R
AUGUSTA-DANIEL CLEAR     45  34  65 CALM      30.29R
SWAINSBORO     FAIR      46  41  81 SE5       30.28R
VIDALIA        CLEAR     50  45  81 SE6       30.26R
EASTMAN        FAIR      38  38 100 CALM      30.29R
HAZLEHURST     FAIR      53  43  69 SE5       30.24S
ALMA           CLEAR     46  41  82 E5        30.25R
WAYCROSS       CLEAR     46  46 100 CALM      30.25R
JESUP          FAIR      41  37  87 E3        30.26S
BAXLEY         FAIR      46  46 100 CALM      30.25S
BRUNSWICK      CLEAR     50  46  87 NE3       30.27S
SAINT SIMONS   CLEAR     61  48  62 E9        30.26S

$$

SCZ027-028-034-036>038-045-046-048>050-GAZ119-141-271200-
...LAKE AND SUPPLEMENTAL COASTAL OBSERVATIONS...

STATION/POSITION TIME  TEMP    WIND        PRES    WAVE   SWELL
                       AIR SEA DIR/SP/G            HT/PER HT/PER/DIR
                 (UTC) (F)     (DEG/KT/KT) (MB)    (FT/S) (FT/S/D)
WINYAH BAY       NOT AVBL
LAKE MURRAY      1020   47     130/  3/  4 1025.7R
ACE BASIN NERRS  NOT AVBL
FORT PULASKI     1048   60 63  120/  9/ 12 1025.6S
SAPELO ISLAND    1000   59      90/  7     1025.0

$$

ANZ835-935-AMZ111-154-330-350-352-354-370-450-454-472-271200-
...C-MAN AND BUOY OBSERVATIONS...

STATION/POSITION TIME  TEMP    WIND        PRES    WAVE   SWELL
                       AIR SEA DIR/SP/G            HT/PER HT/PER/DIR
                 (UTC) (F)     (DEG/KT/KT) (MB)    (FT/S) (FT/S/D)
BUOY 41004       0950   62 69   80/ 12/ 16 1026.3    3/ 9   2/130/ 9
BUOY 41008       0950   63 61   80/ 14/ 16 1024.8    2/ 8   2/130/ 8
FOLLY BEACH CMAN 1000   60     110/ 12/ 14 1027.0R
CAPERS NEARSHORE 1008   60 60  110/ 12/ 16 1026.4S
FRIPP NEARSHORE  1008   61 61  100/ 14/ 17 1025.9R


STATION/POSITION TIME  TEMP    WIND        PRES    WAVE   SWELL
                       AIR SEA DIR/SP/G            HT/PER HT/PER/DIR
                 (UTC) (F)     (DEG/KT/KT) (MB)    (FT/S) (FT/S/D)
5E ST. MARYS GA  1030      64                N/A     3/ 8
FRYING PAN BUOY  1050   61 69   80/ 10/ 14 1027.8S   2/ 8   2/110/ 8
BUOY 41025       1050   57 71   40/  6/ 10 1029.4R   3/ 8   3/110/ 8
CAPE LOOKOUT NC  1000   56      70/  8/  9 1028.2R
BUOY 41002       1050   65 70   60/ 12/ 16 1027.4R   4/ 8   3/ 70/ 8
BUOY 41010       NOT AVBL
ST AUGUSTINE FL  1100   67 65  110/ 12/ 14 1024.8R


$$




USA.gov is the U.S. government's official web portal to all federal, state and local government web resources and services.